TimeCST,TemperatureF,Dew PointF,Humidity,Sea Level PressureIn,VisibilityMPH,Wind Direction,Wind SpeedMPH,Gust SpeedMPH,PrecipitationIn,Events,Conditions,WindDirDegrees,DateUTC
12:52 AM,25.0,23.0,92,30.32,10.0,ESE,5.8,-,N/A,,Clear,110,2013-01-10 06:52:00
1:52 AM,25.0,21.9,88,30.31,10.0,ESE,9.2,-,N/A,,Clear,110,2013-01-10 07:52:00
2:52 AM,24.1,21.0,88,30.30,10.0,ESE,9.2,-,N/A,,Clear,120,2013-01-10 08:52:00
3:52 AM,21.0,19.0,92,30.28,10.0,ESE,9.2,-,N/A,,Clear,120,2013-01-10 09:52:00
4:52 AM,21.9,19.0,89,30.26,10.0,SE,8.1,-,N/A,,Clear,130,2013-01-10 10:52:00
5:52 AM,21.2,19.4,93,30.19,10.0,ESE,8.1,-,N/A,,Clear,110,2013-01-10 11:52:00
6:52 AM,26.1,23.0,88,30.20,10.0,ESE,9.2,-,N/A,,Clear,120,2013-01-10 12:52:00
7:52 AM,28.4,24.8,86,30.14,10.0,ESE,9.2,-,N/A,,Clear,120,2013-01-10 13:52:00
8:52 AM,30.0,24.1,79,30.16,10.0,ESE,6.9,-,N/A,,Clear,110,2013-01-10 14:52:00
9:52 AM,33.1,27.0,78,30.12,10.0,SE,9.2,-,N/A,,Clear,130,2013-01-10 15:52:00
10:52 AM,36.0,26.1,67,30.08,10.0,SSE,8.1,-,N/A,,Mostly Cloudy,150,2013-01-10 16:52:00
11:04 AM,37.4,26.6,65,30.04,10.0,SSE,9.2,-,N/A,,Overcast,150,2013-01-10 17:04:00
11:18 AM,37.4,26.6,65,30.03,10.0,SSE,12.7,-,0.00,Rain,Light Rain,150,2013-01-10 17:18:00
11:52 AM,37.9,27.0,65,30.00,10.0,SE,15.0,-,0.00,,Overcast,140,2013-01-10 17:52:00
12:52 PM,37.0,28.0,70,29.97,10.0,SSE,6.9,-,N/A,,Overcast,150,2013-01-10 18:52:00
1:52 PM,35.6,30.2,81,29.91,10.0,ESE,5.8,-,N/A,Rain,Light Rain,120,2013-01-10 19:52:00
2:52 PM,36.0,30.0,79,29.92,10.0,SE,8.1,-,0.01,Rain,Light Rain,130,2013-01-10 20:52:00
3:52 PM,36.0,30.0,79,29.88,10.0,SE,9.2,-,0.00,,Overcast,130,2013-01-10 21:52:00
4:25 PM,35.6,30.2,81,29.82,10.0,SE,9.2,-,N/A,,Overcast,130,2013-01-10 22:25:00
4:52 PM,36.0,30.9,82,29.86,10.0,SSE,9.2,-,N/A,,Overcast,150,2013-01-10 22:52:00
5:30 PM,35.6,30.2,81,29.80,10.0,SSE,9.2,-,N/A,,Overcast,150,2013-01-10 23:30:00
5:52 PM,35.1,30.9,85,29.83,10.0,SSE,6.9,-,N/A,,Overcast,150,2013-01-10 23:52:00
6:34 PM,35.6,30.2,81,29.77,10.0,SSE,8.1,-,N/A,,Overcast,160,2013-01-11 00:34:00
6:52 PM,35.1,30.9,85,29.80,10.0,SSE,8.1,-,N/A,,Overcast,150,2013-01-11 00:52:00
7:39 PM,33.8,33.8,100,29.75,3.0,SSE,8.1,-,N/A,,Overcast,160,2013-01-11 01:39:00
7:52 PM,34.0,34.0,100,29.78,3.0,SSE,5.8,-,N/A,,Overcast,150,2013-01-11 01:52:00
8:52 PM,35.1,34.0,96,29.77,2.5,SE,5.8,-,N/A,,Overcast,140,2013-01-11 02:52:00
9:30 PM,35.6,33.8,93,29.72,1.8,SSE,9.2,-,N/A,,Overcast,150,2013-01-11 03:30:00
9:48 PM,35.6,33.8,93,29.71,2.0,SSE,10.4,-,N/A,,Overcast,150,2013-01-11 03:48:00
9:52 PM,34.0,34.0,100,29.74,2.0,SSE,9.2,-,N/A,,Overcast,150,2013-01-11 03:52:00
10:52 PM,34.0,34.0,100,29.71,2.0,SSE,9.2,-,N/A,,Overcast,160,2013-01-11 04:52:00
11:15 PM,33.8,33.8,100,29.67,1.8,SSE,9.2,-,N/A,,Overcast,160,2013-01-11 05:15:00
11:25 PM,33.8,33.8,100,29.67,2.5,SSE,6.9,-,N/A,,Overcast,160,2013-01-11 05:25:00
11:42 PM,33.8,33.8,100,29.66,1.5,SSE,6.9,-,N/A,,Overcast,150,2013-01-11 05:42:00
11:52 PM,34.0,34.0,100,29.68,2.0,SE,5.8,-,N/A,,Overcast,140,2013-01-11 05:52:00